Starlink 4051

operational
NORAD ID: 53273 Int'l Des: 2022-086 Owner: SPXS Country: US Constellation: starlink
LEOCIRCULAR

About Starlink 4051

Description loading...

Live Position

Loading 3D Globe...

Upcoming Passes

Altitude History

Altitude vs Time

uPlot chart will show altitude changes over time

Two-Line Element Set

1 53273U 22086AH 25307.64096602 -.00001419 00000-0 -71062-4 0 9995
2 53273 53.2189 29.9748 0001359 88.1587 271.9560 15.08836550182163
Epoch: Nov 3, 2025 • Age: 14 hours

Current Status

Altitude 539.6 km
Velocity 7.59 km/s
Sub-Earth Point 12.82°N, 93.13°W
Launch Date Jul 24, 2022
Age 3.2 years
Type internet

Technical Details

Classification Payload
Mass 297.00 kg
Dry Mass 275.00 kg
Total Mass 297.00 kg
Length 0.20 m
Diameter 2.80 m
Span 9.00 m
Shape Box + pan
Manufacturer SPXS
Bus Type Starlink
Phase Status In Orbit
Owner/State SPXS/US

Large Constellations

Loading constellations...